Waarnemingen

Advertentie
Mijn weer
Benavente, Spanje (8056): temperatuur & dauwpunt: 11.10.2018 05:00:00 - 17.10.2018 05:00:00 (CEST)Benavente, Spanje (8056): windsnelheid & windstoten: 11.10.2018 05:00:00 - 17.10.2018 05:00:00 (CEST)Benavente, Spanje (8056): windrichting: 11.10.2018 05:00:00 - 17.10.2018 05:00:00 (CEST)Benavente, Spanje (8056): luchtdruk: 11.10.2018 05:00:00 - 17.10.2018 05:00:00 (CEST)Benavente, Spanje (8056): zicht: 11.10.2018 05:00:00 - 17.10.2018 05:00:00 (CEST)Benavente, Spanje (8056): Zonneschijnduur: 11.10.2018 05:00:00 - 17.10.2018 05:00:00 (CEST)Benavente, Spanje (8056): neerslag: 11.10.2018 05:00:00 - 17.10.2018 05:00:00 (CEST)
Datum & Tijd tt [°C] td [°C] ff [km/u] ff [kn] fx [km/u] fx [kn] dd ppp [hPa] vv [km] sd [min] rr [mm]
17.10.2018 05:00:00 6,5 4,8 2 1 11 6 NNW 1020,6 14 0 0,0
17.10.2018 04:00:00 7,5 5,6 6 3 13 7 N 1020,5 18 0 0,0
17.10.2018 03:00:00 8,2 6,1 4 2 9 5 NNW 1020,5 18 0 0,0
17.10.2018 02:00:00 8,7 6,2 3 1 8 4 NNW 1020,4 15 0 -
17.10.2018 01:00:00 10,2 7,4 2 1 17 9 NW 1020,1 20 0 0,0
17.10.2018 00:00:00 11,2 8,1 8 5 17 9 W 1019,9 20 0 0,0
16.10.2018 23:00:00 11,5 8,1 7 4 11 6 W 1019,5 20 0 0,0
16.10.2018 22:00:00 10,5 7,4 1 1 5 3 WZW 1019,8 13 0 0,0
16.10.2018 21:00:00 12,9 8,1 3 2 8 4 ZW 1018,8 13 0 0,0
16.10.2018 20:00:00 14,7 8,7 3 2 11 6 ZZW 1017,9 12 0 -
16.10.2018 19:00:00 17,2 8,4 5 3 11 6 ZZW 1016,7 20 59 0,0
16.10.2018 18:00:00 18,1 8,1 4 2 10 5 WZW 1016,1 20 58 0,0
16.10.2018 17:00:00 17,7 8,3 3 2 13 7 ZW 1016,2 20 60 0,0
16.10.2018 16:00:00 16,8 7,7 5 3 13 7 ZZW 1016,6 20 60 0,0
16.10.2018 15:00:00 15,4 8,0 3 2 14 8 NNW 1017,2 20 28 0,0
16.10.2018 14:00:00 14,2 7,3 4 2 11 6 ZW 1017,7 20 0 -
16.10.2018 13:00:00 13,3 8,0 6 4 14 8 N 1018,1 20 0 0,0
16.10.2018 12:00:00 12,1 7,8 5 3 13 7 NNO 1018,1 20 0 0,0
16.10.2018 11:00:00 11,4 7,8 6 4 14 7 N 1017,8 20 0 0,0
16.10.2018 10:00:00 10,7 7,6 5 3 13 7 NNO 1017,5 13 0 0,0
16.10.2018 09:00:00 10,3 7,1 6 3 11 6 N 1016,5 20 0 0,0
16.10.2018 08:00:00 9,9 6,8 4 2 16 9 N 1015,7 20 0 -
16.10.2018 07:00:00 10,0 6,7 7 4 13 7 N 1015,5 20 0 0,0
16.10.2018 06:00:00 10,1 6,7 5 3 9 5 NNW 1015,0 20 0 0,0
16.10.2018 05:00:00 10,0 6,7 4 2 11 6 NNW 1014,4 20 0 0,0
16.10.2018 04:00:00 10,1 6,8 6 3 15 8 NW 1014,1 20 0 0,0
16.10.2018 03:00:00 10,0 6,8 6 4 12 6 N 1014,3 20 0 0,0
16.10.2018 02:00:00 9,2 6,4 5 3 10 5 NNW 1014,2 20 0 -
16.10.2018 01:00:00 10,1 7,1 6 3 11 6 NNW 1013,5 20 0 0,0
16.10.2018 00:00:00 10,2 7,4 1 1 7 4 WNW 1013,4 20 0 0,0
15.10.2018 23:00:00 10,0 7,3 1 1 9 5 N 1013,1 20 0 0,0
15.10.2018 22:00:00 10,8 8,0 4 2 12 7 N 1012,1 20 0 0,0
15.10.2018 21:00:00 11,1 7,8 4 2 10 5 NNO 1011,3 20 0 0,0
15.10.2018 20:00:00 11,2 8,1 4 2 10 5 N 1010,7 20 0 -
15.10.2018 19:00:00 11,6 7,1 4 2 10 6 WNW 1010,1 20 0 0,0
15.10.2018 18:00:00 11,5 8,0 3 1 20 11 ONO 1009,4 20 22 0,0
15.10.2018 17:00:00 10,8 8,0 7 4 21 11 ONO 1009,4 20 0 0,0
15.10.2018 16:00:00 9,9 7,8 11 6 21 11 ONO 1009,7 15 0 0,0
15.10.2018 15:00:00 10,2 8,1 7 4 19 10 NO 1009,4 20 0 0,0
15.10.2018 14:00:00 8,9 7,7 9 5 17 9 O 1009,9 3,1 0 -
15.10.2018 13:00:00 8,6 6,7 6 3 20 11 ZO 1010,0 11 0 0,4
15.10.2018 12:00:00 8,6 7,0 6 3 21 11 ZO 1010,0 2,1 0 0,6
15.10.2018 11:00:00 8,5 6,8 7 4 15 8 ZZO 1009,7 11 0 0,0
15.10.2018 10:00:00 8,2 6,5 6 4 15 8 Z 1009,8 19 0 0,2
15.10.2018 09:00:00 8,0 6,1 4 2 14 8 Z 1009,8 17 0 1,6
15.10.2018 08:00:00 7,9 5,3 5 3 11 6 Z 1009,8 19 0 -
15.10.2018 07:00:00 7,8 4,3 7 4 17 9 Z 1009,9 20 0 0,0
15.10.2018 06:00:00 8,4 5,0 6 3 13 7 ZW 1010,3 13 0 0,0
15.10.2018 05:00:00 8,3 4,6 6 3 16 9 ZZW 1010,6 20 0 0,0
15.10.2018 04:00:00 8,3 5,0 3 2 11 6 Z 1011,2 20 0 0,0
15.10.2018 03:00:00 8,4 3,8 4 2 13 7 Z 1011,9 20 0 0,0
15.10.2018 02:00:00 9,4 3,8 6 3 14 8 ZW 1011,8 20 0 -
15.10.2018 01:00:00 9,5 3,9 4 2 12 7 W 1012,1 20 0 0,0
15.10.2018 00:00:00 9,7 4,3 5 3 11 6 WZW 1012,7 20 0 0,0
14.10.2018 23:00:00 10,0 4,1 3 2 22 12 W 1012,6 20 0 0,0
14.10.2018 22:00:00 10,2 4,3 10 6 23 12 NW 1012,0 20 0 0,0
14.10.2018 21:00:00 10,4 4,3 7 4 22 12 NW 1011,5 20 0 0,0
14.10.2018 20:00:00 12,1 4,6 13 7 36 19 NW 1010,5 20 0 -
14.10.2018 19:00:00 14,1 4,3 19 10 36 19 NW 1009,4 20 16 0,0
14.10.2018 18:00:00 14,8 4,5 13 7 38 20 NW 1008,9 20 0 0,0
14.10.2018 17:00:00 14,9 4,8 16 8 35 19 NNW 1008,7 20 14 0,0
14.10.2018 16:00:00 14,6 4,6 17 9 41 22 NNW 1008,8 20 0 0,0
14.10.2018 15:00:00 14,7 4,3 16 9 39 21 NW 1009,0 20 0 0,0
14.10.2018 14:00:00 13,5 4,1 16 9 42 23 NW 1009,4 20 0 -
14.10.2018 13:00:00 11,8 4,3 22 12 46 25 NW 1009,5 20 0 0,0
14.10.2018 12:00:00 10,4 5,1 16 9 34 19 NW 1009,5 20 0 0,0
14.10.2018 11:00:00 9,3 5,5 17 9 36 20 WNW 1009,5 20 0 0,2
14.10.2018 10:00:00 8,6 4,6 16 9 35 19 WNW 1008,4 20 0 0,4
14.10.2018 09:00:00 10,3 5,1 15 8 35 19 NW 1006,6 20 0 0,0
14.10.2018 08:00:00 11,1 6,2 6 3 25 13 W 1004,6 20 0 -
14.10.2018 07:00:00 11,2 7,0 10 6 45 25 WZW 1003,6 20 0 0,0
14.10.2018 06:00:00 12,2 7,7 22 12 63 34 ZZW 1002,4 20 0 0,0
14.10.2018 05:00:00 15,7 10,9 28 15 66 35 Z 1001,2 20 0 0,0
14.10.2018 04:00:00 16,7 11,0 18 10 51 27 Z 1001,6 20 0 0,0
14.10.2018 03:00:00 18,5 9,8 27 14 54 29 Z 1001,8 20 0 0,2
14.10.2018 02:00:00 18,7 10,5 20 11 49 27 Z 1002,6 15 0 -
14.10.2018 01:00:00 18,8 9,0 6 4 25 13 Z 1003,5 20 0 0,0
14.10.2018 00:00:00 17,6 9,9 5 3 13 7 ZZO 1005,1 20 0 0,0
13.10.2018 23:00:00 17,5 9,7 2 1 11 6 Z 1006,3 20 0 0,0
13.10.2018 22:00:00 18,1 9,2 4 2 10 5 ZZW 1006,9 20 0 0,0
13.10.2018 21:00:00 20,8 8,8 3 2 14 8 ZZW 1007,1 20 0 0,0
13.10.2018 20:00:00 22,6 8,3 6 4 23 13 ZZO 1007,3 20 0 -
13.10.2018 19:00:00 24,0 7,6 9 5 27 14 ZZO 1007,6 20 0 0,0
13.10.2018 18:00:00 24,9 9,2 7 4 26 14 Z 1008,2 20 17 0,0
13.10.2018 17:00:00 26,1 9,0 8 5 27 15 ZZO 1008,6 20 60 0,0
13.10.2018 16:00:00 25,3 9,2 15 8 27 14 Z 1009,8 20 60 0,0
13.10.2018 15:00:00 23,6 10,6 11 6 29 16 Z 1011,5 20 60 0,0
13.10.2018 14:00:00 - - - - - - - - - - -
13.10.2018 13:00:00 20,9 11,6 8 4 19 10 Z 1015,2 20 60 0,0
13.10.2018 12:00:00 18,4 11,2 5 3 14 8 ZZO 1017,1 20 60 0,0
13.10.2018 11:00:00 14,8 10,2 6 3 13 7 O 1018,7 20 47 0,0
13.10.2018 10:00:00 12,0 9,2 3 2 6 3 O 1019,6 20 7 0,0
13.10.2018 09:00:00 10,2 8,3 3 2 6 3 ZO 1019,8 20 0 0,0
13.10.2018 08:00:00 9,9 7,8 3 1 5 3 ONO 1019,6 20 0 -
13.10.2018 07:00:00 9,8 7,6 2 1 4 2 N 1019,5 20 0 0,0
13.10.2018 06:00:00 10,2 7,8 1 1 5 3 N 1019,7 20 0 0,0
13.10.2018 05:00:00 10,3 7,8 1 1 4 2 NNW 1019,9 20 0 0,0
13.10.2018 04:00:00 11,4 8,7 2 1 5 3 NO 1020,0 20 0 0,0
13.10.2018 03:00:00 12,3 8,5 1 1 7 4 Z 1020,4 20 0 0,0
13.10.2018 02:00:00 14,3 9,7 3 2 11 6 O 1019,9 20 0 -
13.10.2018 01:00:00 16,4 10,3 6 3 16 8 WZW 1019,7 20 0 0,0
13.10.2018 00:00:00 14,9 10,3 4 2 9 5 ZW 1020,8 20 0 0,0
12.10.2018 23:00:00 16,7 10,8 3 1 7 4 ZO 1020,6 20 0 0,0
12.10.2018 22:00:00 18,2 10,8 1 1 8 4 Z 1020,0 20 0 0,0
12.10.2018 21:00:00 19,1 10,4 4 2 9 5 ZZW 1019,8 20 0 0,0
12.10.2018 20:00:00 19,9 10,0 3 2 8 4 Z 1019,2 20 0 -
12.10.2018 19:00:00 20,5 10,0 3 2 18 10 Z 1018,9 20 0 0,0
12.10.2018 18:00:00 21,0 9,6 9 5 25 13 ZW 1018,6 20 13 0,0
12.10.2018 17:00:00 21,6 9,2 10 5 25 13 ZW 1018,7 20 8 0,0
12.10.2018 16:00:00 21,5 9,0 12 6 31 17 ZZW 1018,7 20 18 0,0
12.10.2018 15:00:00 20,4 8,7 11 6 32 17 ZZW 1019,1 20 20 0,0
12.10.2018 14:00:00 20,3 8,7 14 8 32 18 ZZW 1019,6 20 58 -
12.10.2018 13:00:00 18,7 8,7 11 6 29 16 ZW 1020,2 20 60 0,0
12.10.2018 12:00:00 15,8 9,4 12 7 - - ZW 1021,0 20 - -
12.10.2018 11:00:00 13,8 10,2 8 5 21 11 ZZW 1021,5 20 60 0,0
12.10.2018 10:00:00 11,7 10,2 7 4 17 9 Z 1021,2 20 43 0,0
12.10.2018 09:00:00 9,7 8,3 1 1 11 6 ZZO 1021,0 16 0 0,0
12.10.2018 08:00:00 10,3 8,9 5 3 11 6 ZZW 1019,9 20 0 -
12.10.2018 07:00:00 10,7 9,2 4 2 10 5 Z 1019,3 20 0 0,0
12.10.2018 06:00:00 10,5 9,0 4 2 8 5 ZZW 1019,0 17 0 0,0
12.10.2018 05:00:00 10,4 9,0 4 2 9 5 ZZW 1018,4 15 0 0,0
12.10.2018 04:00:00 10,6 8,7 4 2 11 6 ZZO 1018,2 20 0 0,0
12.10.2018 03:00:00 11,3 8,9 3 2 12 6 Z 1017,7 20 0 0,0
12.10.2018 02:00:00 11,9 9,4 6 3 13 7 ZZW 1017,5 20 0 -
12.10.2018 01:00:00 12,7 9,9 4 2 16 9 ZZW 1017,0 20 0 0,0
12.10.2018 00:00:00 13,4 10,9 11 6 23 13 ZZW 1016,2 20 0 0,0
11.10.2018 23:00:00 13,1 11,3 5 3 11 6 ZZW 1016,0 20 0 0,0
11.10.2018 22:00:00 13,5 11,3 3 2 12 6 ZZW 1014,9 20 0 0,0
11.10.2018 21:00:00 14,0 11,7 7 4 13 7 ZZW 1014,4 20 0 0,0
11.10.2018 20:00:00 - - - - - - - - - - -
11.10.2018 19:00:00 16,9 10,8 9 5 31 17 ZZW 1011,7 20 0 0,0
11.10.2018 18:00:00 17,7 10,0 16 8 31 17 ZW 1010,8 20 0 0,0
11.10.2018 17:00:00 17,6 10,8 13 7 30 16 ZZW 1010,1 20 0 0,0
11.10.2018 16:00:00 17,2 10,5 11 6 24 13 ZZW 1009,9 20 0 0,0
11.10.2018 15:00:00 16,6 11,3 12 7 27 15 ZW 1009,5 20 0 0,0
11.10.2018 14:00:00 15,9 11,9 10 6 27 14 ZW 1009,3 20 0 -
11.10.2018 13:00:00 15,1 13,0 11 6 39 21 ZZW 1008,9 20 0 0,6
11.10.2018 12:00:00 15,9 11,9 15 8 32 17 ZW 1007,9 20 0 0,0
11.10.2018 11:00:00 15,5 12,6 9 5 29 15 ZZW 1007,6 20 11 0,0
11.10.2018 10:00:00 14,1 12,1 10 6 21 12 Z 1007,7 19 0 0,8
11.10.2018 09:00:00 13,6 10,5 6 3 19 10 Z 1007,3 16 0 0,0
11.10.2018 08:00:00 13,8 9,7 9 5 24 13 Z 1006,9 20 0 -
11.10.2018 07:00:00 13,6 9,8 9 5 21 11 ZZW 1006,5 20 0 0,0
11.10.2018 06:00:00 13,0 8,7 9 5 21 11 Z 1006,7 20 0 0,0
11.10.2018 05:00:00 12,1 6,8 6 3 15 8 Z 1007,4 20 0 0,0

tt = temperatuur
td = dauwpunt
ff = windsnelheid
fx = windstoten
dd = windrichting
ppp = luchtdruk
vv = zicht
sd = Zonneschijnduur
rr = neerslag

Weerstations in de omgeving